Location: Eschertshofen
(49.3064°N, 11.5756°E)
Time: 18:12:39
(UTC+00:00)

Spot 2 Rocket - Pass Details

Date: 22 June 2021
Orbit: 757 x 771 km, 98.5° (Epoch: 25 July)

Event Time Altitude Azimuth Distance (km) Brightness Sun altitude
Exits shadow 20:53:54 - 183° (S) 2,456 5.6 -10.7°
Reaches altitude 10° 20:54:19 10° 184° (S) 2,293 5.5 -10.7°
Maximum altitude 20:59:14 51° 260° (W) 961 4.2 -11.2°
Drops below altitude 10° 21:04:13 10° 336° (NNW) 2,319 7.5 -11.6°
Sets 21:06:37 0° 342° (NNW) 3,253 8.6 -11.8°
